{"data":{"norad_id":47261,"epoch":"2026-09-20T04:35:51.011232Z","epoch_age_seconds":44728,"freshness":"FRESH","line1":"1 47261U 20100D   26263.19156263  .00000372  00000+0  99888-3 0  9991","line2":"2 47261  87.8975 331.8039 0001971  96.0256 264.1097 13.12441830277023","mean_motion":13.1244183,"eccentricity":0.0001971,"inclination_deg":87.8975,"raan_deg":331.8039,"arg_perigee_deg":96.0256,"mean_anomaly_deg":264.1097,"bstar":0.00099888,"rev_number":27702,"period_min":109.71914846695,"perigee_km":1212.2314464285,"apogee_km":1215.2241595338,"semimajor_km":7591.8648029812,"source":"CELESTRAK","updated_at":"2026-09-20T09:00:44.560310Z"}}